Regional Weather Roundup
Issued by NWS

Home | Current Version | Previous Version | Graphics & Text | Print | Product List | Glossary On
Versions: 1 2 3 4 5 6 7 8 9 10 11 12 13 14 15 16 17 18 19 20 21 22 23 24 25 26 27 28 29 30 31 32 33 34 35 36 37 38 39 40 41 42 43 44 45 46 47 48 49 50
000
ASUS43 KLOT 252304
RWRIL

ILLINOIS REGIONAL WEATHER ROUNDUP
NATIONAL WEATHER SERVICE CHICAGO/ROMEOVILLE IL
600 PM CDT FRI MAY 25 2018

NOTE: "FAIR" INDICATES FEW OR NO CLOUDS BELOW 12,000 FEET WITH NO
SIGNIFICANT WEATHER AND/OR OBSTRUCTIONS TO VISIBILITY.

* THESE STATIONS ARE NOT UNDER NWS QUALITY CONTROL. THEY ALSO MAY NOT
  REPORT WEATHER SUCH AS PRECIPITATION OR FOG.

ILZ001-002-007-009-015-016-024-260000-
NORTHWEST ILLINOIS

CITY           SKY/WX    TMP DP  RH WIND       PRES   REMARKS
MOLINE         FAIR      80  68  66 CALM      29.77S HX  83
STERLING*        N/A    N/A N/A N/A MISG        N/A
SAVANNA*       FAIR      79  64  60 S8        29.78S HX  80
$$

ILZ003-004-008-010-011-017-018-260000-
NORTH CENTRAL ILLINOIS

CITY           SKY/WX    TMP DP  RH WIND       PRES   REMARKS
ROCKFORD       CLOUDY    77  63  61 W5        29.78F
FREEPORT*      FAIR      75  65  73 S8        29.80F
ROCHELLE*      FAIR      80  64  57 SW8       29.78F HX  82
DE KALB*       FAIR      78  65  65 W10       29.79F HX  80
PERU*          FAIR      78  67  70 S6        29.81S
$$

ILZ005-006-012>014-019>023-260000-
NORTHEAST ILLINOIS

CITY           SKY/WX    TMP DP  RH WIND       PRES   REMARKS
CHICAGO-OHARE  CLOUDY    85  61  44 SW9       29.75F HX  85
CHICAGO-MIDWAY CLOUDY    88  57  34 S7        29.76F HX  87
AURORA         FAIR      78  66  66 W7        29.78F HX  80
LANSING*       PTSUNNY   84  65  52 NE3       29.77F HX  85
JOLIET*        FAIR      81  64  55 W9        29.79S HX  82
WAUKEGAN       FAIR      78  59  51 SE8       29.75F
DUPAGE AIRPORT FAIR      80  65  59 W10       29.77F HX  82
KANKAKEE*      CLOUDY    78  64  62 NW17G24   29.81R HX  80
WHEELING       FAIR      87  60  40 W9        29.77F HX  87
MORRIS*        FAIR      76  66  70 W13       29.78F
ROMEOVILLE*    FAIR      79  64  59 NW8       29.78F HX  81
NORTHERLY ISL    N/A     73  57  57 NE1         N/A
$$

LMZ740>746-260000-
SOUTHERN LAKE MICHIGAN

STATION/POSITION SKY/WX   TEMP    WIND        PRES    VSBY  WAVE
                          AIR SEA DIR/SP/G                  HT/PER
                          (F)     (DEG/KT/KT) (MB)    (MI)  (FT/S)
SOUTHERN BUOY              53 39  150/ 10/ 10 1008.5F         0
WILMETTE HARBOR            63 57  160/  2/  4   N/A           1
HARRISON CRIB              79     110/ 17/ 17   N/A
BURNHAM HARBOR             74      CALM  /  4   N/A
CALUMET HARBOR             73      50/  4/  9 1008.2F
BURNS HARBOR               70      80/ 11/ 12 1009.1F
MICHIGAN CITY              74      40/ 13/ 14   N/A
MICHIGAN CITY 6N           68 61   70/  6/  8   N/A           0
ST. JOSEPH                 75 71   80/  4/  4 1008.5F         0
$$

ILZ025>027-034>036-040-047-049-050-058-095>099-260000-
WEST-CENTRAL ILLINOIS

CITY           SKY/WX    TMP DP  RH WIND       PRES   REMARKS
QUINCY         MOSUNNY   80  64  58 SW3       29.80S HX  82
MACOMB*        CLOUDY    71  66  82 SE13      29.83S
JACKSONVILLE*  PTSUNNY   73  69  88 NE8       29.82S
PITTSFIELD*    MOSUNNY   78  71  80 E3        29.82S HX  80
$$

ILZ028>032-037-038-041>044-048-051>054-059>061-260000-
CENTRAL ILLINOIS

CITY           SKY/WX    TMP DP  RH WIND       PRES   REMARKS
PONTIAC        LGT RAIN  74  71  88 CALM      29.80F
BLOOMINGTON    FAIR      75  67  76 N9        29.82S
DECATUR        FAIR      87  62  43 S15       29.79F HX  87
PEORIA         LGT RAIN  74  71  91 S7        29.82R
LACON*         FAIR      75  69  82 CALM      29.79F
LINCOLN*       CLOUDY    75  70  83 NW10G22   29.82R THUNDER
SPRINGFIELD    LGT RAIN  72  69  90 NW8G22    29.83R
TAYLORVILLE    FAIR      83  65  53 S16G23    29.80S HX  85
$$

ILZ033-039-045-046-055>057-062-063-260000-
EAST-CENTRAL ILLINOIS

CITY           SKY/WX    TMP DP  RH WIND       PRES   REMARKS
CHAMPAIGN      PTSUNNY   88  57  34 S13       29.81S HX  87
DANVILLE*      FAIR      88  58  36 S10       29.80S HX  87
RANTOUL*       PTSUNNY   89  57  33 S13       29.80S HX  88
MATTOON        PTSUNNY   84  66  54 S10G17    29.81F HX  86
PARIS*         FAIR      88  58  36 S12       29.84R HX  86
$$

ILZ079-100>102-260000-
SOUTHWEST ILLINOIS

CITY           SKY/WX    TMP DP  RH WIND       PRES   REMARKS
ALTON          PTSUNNY   81  68  65 S14       29.82F HX  83
BELLEVILLE     CLOUDY    78  70  75 S15       29.82F HX  80
CAHOKIA*       CLOUDY    81  66  60 S6        29.82S HX  83
SPARTA*        CLOUDY    76  71  86 S10       29.88S
$$

ILZ064>066-069>071-074>076-080>082-084>086-088>090-092>094-260000-
SOUTH-CENTRAL ILLINOIS

CITY           SKY/WX    TMP DP  RH WIND       PRES   REMARKS
CARBONDALE     LGT RAIN  70  68  93 SE6       29.87F
CAIRO*         FAIR      72  68  88 SE6       29.86F
EFFINGHAM*     CLOUDY    76  71  84 S7G20     29.85R
MARION         LGT RAIN  70  68  94 S5        29.90F
MT. VERNON     FAIR      69  68  96 SW7       29.87F
CENTRALIA*     CLOUDY    72  69  91 S10       29.84F
SALEM*         FAIR      72  67  84 S8        29.85F
METROPOLIS*    TSTM      71  69  93 E3        29.89F
$$

ILZ067-068-072-073-078-083-087-091-260000-
SOUTHEAST ILLINOIS

CITY           SKY/WX    TMP DP  RH WIND       PRES   REMARKS
LAWRENCEVILLE  FAIR      86  64  47 S9        29.84F HX  87
FLORA*         RAIN      74  67  77 SW14G22   29.85S
FAIRFIELD*     LGT RAIN  73  65  76 SW5       29.85F
HARRISBURG*    RAIN      73  70  89 S6        29.90S
ROBINSON*      FAIR      83  65  55 S14G24    29.84S HX  85
CARMI*         FAIR      79  68  69 SW9       29.87F HX  81
$$

ABBREVIATIONS USED IN REMARKS
   TC - TEMPERATURE IN CELSIUS
  WCI - WIND CHILL INDEX
   HX - HEAT INDEX
  VSB - VISIBILITY
$$




USA.gov is the U.S. government's official web portal to all federal, state and local government web resources and services.